DW8599 Weather Reports


time (UTC)temp
F
wind
direction
speed
knots
gust
knots
rain 1hr
in
rain 24hr
in
rain mn
in
humidity
%
barometer
mb
20260504190541 68 0.0 0.0 0.00 0.00 0.00 44 1005.6
20260504190053 69 0.0 0.0 0.00 0.00 0.00 45 1005.5
20260504185541 69 0.0 0.0 0.00 0.00 0.00 44 1005.7
20260504185041 69 0.0 0.0 0.00 0.00 0.00 46 1005.6
20260504184548 68 0.0 0.0 0.00 0.00 0.00 48 1005.7
20260504184044 68 0.0 0.0 0.00 0.00 0.00 46 1005.8
20260504183541 67 0.0 0.0 0.00 0.00 0.00 46 1005.8
20260504183057 67 0.0 0.0 0.00 0.00 0.00 47 1005.7
20260504182543 65 0.0 0.0 0.00 0.00 0.00 49 1005.8
20260504182044 65 0.0 0.0 0.00 0.00 0.00 48 1005.8
20260504181546 65 0.0 0.0 0.00 0.00 0.00 48 1005.9
20260504181044 66 0.0 0.0 0.00 0.00 0.00 47 1005.9
20260504180543 66 0.0 0.0 0.00 0.00 0.00 50 1006.0
20260504180122 66 0.0 0.0 0.00 0.00 0.00 50 1006.0
20260504175546 66 0.0 0.0 0.00 0.00 0.00 46 1006.0
20260504175043 65 0.0 0.0 0.00 0.00 0.00 48 1006.0
20260504174548 64 0.0 0.0 0.00 0.00 0.00 47 1006.1
20260504174043 64 0.0 0.0 0.00 0.00 0.00 48 1006.1
20260504173543 64 0.0 0.0 0.00 0.00 0.00 48 1006.2
20260504173049 64 0.0 0.0 0.00 0.00 0.00 48 1006.0
20260504172543 64 0.0 0.0 0.00 0.00 0.00 47 1006.1
20260504172044 65 0.0 0.0 0.00 0.00 0.00 50 1006.1
20260504171553 65 0.0 0.0 0.00 0.00 0.00 45 1006.1
20260504171045 65 0.0 0.0 0.00 0.00 0.00 50 1006.2
20260504170543 65 0.0 0.0 0.00 0.00 0.00 49 1006.2
20260504151043 60 0.0 0.0 0.00 0.00 0.00 55 1007.2
20260504150545 59 0.0 0.0 0.00 0.00 0.00 58 1007.3
20260504141043 54 0.0 0.0 0.00 0.00 0.00 59 1007.3
20260504140543 53 0.0 0.0 0.00 0.00 0.00 59 1007.4
20260504130544 50 0.0 0.0 0.00 0.00 0.00 61 1007.5
20260504120103 47 0.0 0.0 0.00 0.00 0.00 65 1007.9
20260504110544 45 0.0 0.0 0.00 0.00 0.00 67 1007.8
20260504100539 44 0.0 0.0 0.00 0.00 0.00 69 1007.8
20260504081547 44 0.0 0.0 0.00 0.00 0.00 71 1008.0
20260504081039 44 0.0 0.0 0.00 0.00 0.00 70 1007.9
20260504080540 44 0.0 0.0 0.00 0.00 0.00 70 1008.0
20260504050540 45 0.0 0.0 0.00 0.00 0.00 79 1008.7
20260504050105 45 0.0 0.0 0.00 0.00 0.00 83 1008.8
20260504045539 45 0.0 0.0 0.00 0.00 0.00 79 1008.8
20260504045039 45 0.0 0.0 0.00 0.00 0.00 80 1008.8
20260504044549 45 0.0 0.0 0.00 0.00 0.00 83 1008.8
20260504044043 45 0.0 0.0 0.00 0.00 0.00 84 1008.7
20260504043539 45 0.0 0.0 0.00 0.00 0.00 84 1008.7
20260504043056 44 0.0 0.0 0.00 0.00 0.00 83 1008.8
20260504042538 44 0.0 0.0 0.00 0.00 0.00 83 1008.7
20260504042044 44 0.0 0.0 0.00 0.00 0.00 82 1008.8
20260504041547 44 0.0 0.0 0.00 0.00 0.00 83 1008.8
20260504041039 44 0.0 0.0 0.00 0.00 0.00 84 1008.9
20260504040539 44 0.0 0.0 0.00 0.00 0.00 84 1008.9
20260504035540 44 0.0 0.0 0.00 0.00 0.00 86 1009.0
20260504035046 44 0.0 0.0 0.00 0.00 0.00 86 1008.9
20260504034555 44 0.0 0.0 0.00 0.00 0.00 86 1008.8
20260504034039 44 0.0 0.0 0.00 0.00 0.00 86 1008.8
20260504033539 44 0.0 0.0 0.00 0.00 0.00 86 1008.8
20260504033056 44 0.0 0.0 0.00 0.00 0.00 85 1008.9
20260504032540 44 0.0 0.0 0.00 0.00 0.00 86 1009.0
20260504032045 45 0.0 0.0 0.00 0.00 0.00 85 1009.1
20260504031602 45 0.0 0.0 0.00 0.00 0.00 83 1009.4
20260504031039 45 0.0 0.0 0.00 0.00 0.00 83 1009.7
20260504030539 45 0.0 0.0 0.00 0.00 0.00 83 1009.8
20260504030150 45 0.0 0.0 0.00 0.00 0.00 82 1009.6
20260504025539 45 0.0 0.0 0.00 0.00 0.00 81 1009.4
20260504025042 45 0.0 0.0 0.00 0.00 0.00 81 1009.4
20260504024557 45 0.0 0.0 0.00 0.00 0.00 81 1009.6
20260504024041 46 0.0 0.0 0.00 0.00 0.00 79 1009.8
20260504023539 46 0.0 0.0 0.00 0.00 0.00 76 1009.8
20260504023051 46 0.0 0.0 0.00 0.00 0.00 75 1010.0
20260504022538 47 0.0 0.0 0.00 0.00 0.00 73 1010.0
20260504022043 47 0.0 0.0 0.00 0.00 0.00 71 1010.0
20260504021552 47 0.0 0.0 0.00 0.00 0.00 69 1009.9
20260504021041 47 0.0 0.0 0.00 0.00 0.00 69 1009.9
20260504020541 47 0.0 0.0 0.00 0.00 0.00 70 1009.8
20260504020104 48 0.0 0.0 0.00 0.00 0.00 67 1009.7
20260504015540 48 0.0 0.0 0.00 0.00 0.00 66 1009.7
20260504015041 48 0.0 0.0 0.00 0.00 0.00 67 1009.6
20260504014553 48 0.0 0.0 0.00 0.00 0.00 66 1009.5
20260504014040 48 0.0 0.0 0.00 0.00 0.00 63 1009.6
20260504013541 48 0.0 0.0 0.00 0.00 0.00 65 1009.3
20260504013052 48 0.0 0.0 0.00 0.00 0.00 65 1009.4
20260504012543 48 0.0 0.0 0.00 0.00 0.00 65 1009.3
20260504012041 48 0.0 0.0 0.00 0.00 0.00 65 1009.2
20260504011554 47 0.0 0.0 0.00 0.00 0.00 63 1009.1
20260504011040 47 0.0 0.0 0.00 0.00 0.00 65 1009.2
20260504010541 48 0.0 0.0 0.00 0.00 0.00 66 1009.3
20260504010053 48 0.0 0.0 0.00 0.00 0.00 61 1009.3
20260504005541 48 0.0 0.0 0.00 0.00 0.00 61 1009.2
20260504005041 48 0.0 0.0 0.00 0.00 0.00 64 1009.3
20260504004551 48 0.0 0.0 0.00 0.00 0.00 60 1009.2
20260504004038 48 0.0 0.0 0.00 0.00 0.00 60 1009.3
20260504003541 48 0.0 0.0 0.00 0.00 0.00 60 1009.3
20260504003049 48 0.0 0.0 0.00 0.00 0.00 60 1009.3
20260504002543 49 0.0 0.0 0.00 0.00 0.00 58 1009.3
20260504002041 49 0.0 0.0 0.00 0.00 0.00 57 1009.3
20260504001550 49 0.0 0.0 0.00 0.00 0.00 56 1009.4
20260504001041 49 0.0 0.0 0.00 0.00 0.00 55 1009.4
20260504000544 49 0.0 0.0 0.00 0.00 0.00 56 1009.3
20260504000054 49 0.0 0.0 0.00 0.00 0.00 56 1009.3
20260503235543 49 0.0 0.0 0.00 0.00 0.00 56 1009.3
20260503235043 49 0.0 0.0 0.00 0.00 0.00 55 1009.1
20260503234549 49 0.0 0.0 0.00 0.00 0.00 53 1009.1
20260503234047 49 0.0 0.0 0.00 0.00 0.00 54 1009.1
20260503233545 49 0.0 0.0 0.00 0.00 0.00 54 1009.0
20260503233056 49 0.0 0.0 0.00 0.00 0.00 53 1008.9
20260503232542 50 0.0 0.0 0.00 0.00 0.00 53 1008.9
20260503232042 50 0.0 0.0 0.00 0.00 0.00 52 1008.8
20260503231552 50 0.0 0.0 0.00 0.00 0.00 52 1008.8
20260503231044 50 0.0 0.0 0.00 0.00 0.00 51 1008.8
20260503230543 50 0.0 0.0 0.00 0.00 0.00 52 1008.7
20260503230104 50 0.0 0.0 0.00 0.00 0.00 55 1008.8
20260503225543 50 0.0 0.0 0.00 0.00 0.00 54 1008.8
20260503225043 50 0.0 0.0 0.00 0.00 0.00 52 1008.8
20260503224557 50 0.0 0.0 0.00 0.00 0.00 52 1008.9
20260503224043 50 0.0 0.0 0.00 0.00 0.00 50 1008.9
20260503223543 50 0.0 0.0 0.00 0.00 0.00 50 1008.9
20260503223055 50 0.0 0.0 0.00 0.00 0.00 51 1008.9
20260503222542 50 0.0 0.0 0.00 0.00 0.00 51 1008.9
20260503222042 50 0.0 0.0 0.00 0.00 0.00 50 1008.9
20260503221550 50 0.0 0.0 0.00 0.00 0.00 50 1008.8
20260503221043 50 0.0 0.0 0.00 0.00 0.00 48 1008.8
20260503220543 51 0.0 0.0 0.00 0.00 0.00 50 1008.8
20260503220054 51 0.0 0.0 0.00 0.00 0.00 50 1008.8
20260503215542 51 0.0 0.0 0.00 0.00 0.00 48 1008.8
20260503215042 51 0.0 0.0 0.00 0.00 0.00 50 1008.8
20260503214551 51 0.0 0.0 0.00 0.00 0.00 48 1008.8
20260503214043 52 0.0 0.0 0.00 0.00 0.00 47 1008.8
20260503213540 51 0.0 0.0 0.00 0.00 0.00 50 1008.8
20260503213059 51 0.0 0.0 0.00 0.00 0.00 49 1008.7
20260503212543 51 0.0 0.0 0.00 0.00 0.00 49 1008.8
20260503212040 51 0.0 0.0 0.00 0.00 0.00 50 1008.7
20260503211607 51 0.0 0.0 0.00 0.00 0.00 49 1008.7
20260503211042 50 0.0 0.0 0.00 0.00 0.00 48 1008.7
20260503210546 51 0.0 0.0 0.00 0.00 0.00 49 1008.7
20260503210050 51 0.0 0.0 0.00 0.00 0.00 47 1008.8
20260503205543 51 0.0 0.0 0.00 0.00 0.00 47 1008.6
20260503205043 51 0.0 0.0 0.00 0.00 0.00 46 1008.6
20260503204550 50 0.0 0.0 0.00 0.00 0.00 47 1008.8
20260503204043 50 0.0 0.0 0.00 0.00 0.00 45 1008.8
20260503203542 50 0.0 0.0 0.00 0.00 0.00 44 1008.8
20260503203049 51 0.0 0.0 0.00 0.00 0.00 46 1008.9
20260503202540 50 0.0 0.0 0.00 0.00 0.00 46 1008.8
20260503202043 50 0.0 0.0 0.00 0.00 0.00 44 1008.9
20260503201554 50 0.0 0.0 0.00 0.00 0.00 44 1008.8
20260503201044 50 0.0 0.0 0.00 0.00 0.00 41 1008.9
20260503200542 51 0.0 0.0 0.00 0.00 0.00 43 1008.8
20260503200055 51 0.0 0.0 0.00 0.00 0.00 42 1008.9
20260503195540 51 0.0 0.0 0.00 0.00 0.00 41 1009.0
20260503195043 52 0.0 0.0 0.00 0.00 0.00 39 1008.9
20260503194603 52 0.0 0.0 0.00 0.00 0.00 41 1009.0
20260503194043 52 0.0 0.0 0.00 0.00 0.00 43 1009.1
20260503193543 51 0.0 0.0 0.00 0.00 0.00 40 1009.2
20260503193102 52 0.0 0.0 0.00 0.00 0.00 45 1009.2
20260503192543 52 0.0 0.0 0.00 0.00 0.00 40 1009.2
20260503192044 51 0.0 0.0 0.00 0.00 0.00 42 1009.3
20260503191554 51 0.0 0.0 0.00 0.00 0.00 40 1009.3
20260503191042 50 0.0 0.0 0.00 0.00 0.00 42 1009.5